星链-11162 [DTC] (STARLINK-11162 [DTC] )

导读 | 星芒AI

STARLINK-11162 [DTC] 是 SpaceX Starlink 项目中的一颗低轨道通信卫星,属于第 11 批发射的 Starlink 卫星群。该卫星采用先进的相控阵天线和激光通信技术,旨在为全球提供高速互联网服务。它运行在约 550 公里的轨道高度,设计寿命约为 5 年,并具备自动避撞功能以确保太空安全。该卫星由 SpaceX 制造并发射,是其构建全球宽带网络计划的重要组成部分。

基本信息
目录编号:
60123
目录名称:
STARLINK-11162
国际标识:
2024-118L
轨道中心:
EARTH
卫星名称:
星链-11162 [DTC]
卫星全名:
星链-11162 [DTC] (STARLINK-11162 [DTC] )
卫星状态:
在轨 (已飞行539 天)
发射日期:
2024-06-24 UTC
国别 :
美国 (US)
星等 :
--
轨道信息
数据来源 国际轨道数据
星历时间: 2025-12-14T13:18:05+0800
1天前
查看轨道信息
半长轴: 6738.014km
偏心率: 0.0000738
轨道倾角: 53.160°
近地点辐角 91.966°
升交点赤经 282.280°
平近点角 268.145°
近地点: 359.381km
远地点: 360.377km
周期: 91.740分钟
每日圈数: 15.696578
详细信息
固有亮度:
5
最大亮度:
0.3
卫星平台:
Starlink v2.0 mini
覆盖范围:
全球
运营商:
太空探索技术公司
运营商所在国:
美国
制造商(研发单位):
太空探索技术公司
制造商所在国:
美国
使用方式:
暂无
卫星简介
星链(Starlink)计划是由太空探索技术公司(SpaceX)提出的一个巨型低轨卫星互联网星座项目,计划在2019年至2024年间在太空搭建由约1.2万颗卫星组成的“星链”网络,其中1584颗将部署在地球上空550千米处的近地轨道,并从2020年开始工作。该卫星仍在工作。
2D轨道图
3D轨道图
轨道高度分析图
轨道倾角分析图
轨道综合分析图
查看轨道综合分析图